CW7536 Weather Reports


time (UTC)temp
C
wind
direction
speed
KPH
gust
KPH
rain 1hr
cm
rain 24hr
cm
rain mn
cm
humidity
%
barometer
mb
20260502211536 15 34 0.0 3.2 0.00 0.00 0.00 39 1010.1
20260502210036 14 288 0.0 3.2 0.00 0.00 0.00 38 1010.0
20260502204527 15 256 0.0 3.2 0.00 0.00 0.00 39 1010.0
20260502203023 15 347 0.0 8.0 0.00 0.00 0.00 40 1010.0
20260502201522 15 7 0.0 4.8 0.00 0.00 0.00 38 1010.2
20260502200014 15 312 1.6 3.2 0.00 0.00 0.00 38 1010.3
20260502194510 15 219 1.6 6.4 0.00 0.00 0.00 39 1010.6
20260502193005 15 72 1.6 8.0 0.00 0.00 0.00 38 1010.7
20260502191606 15 267 0.0 3.2 0.00 0.00 0.00 40 1011.1
20260502190056 15 56 0.0 4.8 0.00 0.00 0.00 38 1011.1
20260502184551 14 354 0.0 4.8 0.00 0.00 0.00 39 1011.3
20260502183050 14 90 0.0 4.8 0.00 0.00 0.00 38 1011.3
20260502181542 15 261 0.0 3.2 0.00 0.00 0.00 43 1011.4
20260502163018 13 51 3.2 8.0 0.00 0.00 0.00 46 1012.5
20260502161506 13 345 0.0 4.8 0.00 0.00 0.00 47 1012.5
20260502151556 12 333 0.0 4.8 0.00 0.00 0.00 49 1012.7
20260502123002 10 11 0.0 3.2 0.00 0.00 0.00 1 1012.6
20260502121556 10 351 0.0 1.6 0.00 0.00 0.00 1 1012.5
20260502120104 10 8 0.0 1.6 0.00 0.00 0.00 1 1012.3
20260502114615 10 311 0.0 1.6 0.00 0.00 0.00 1 1012.4
20260502113045 10 333 0.0 1.6 0.00 0.00 0.00 1 1012.3
20260502111538 10 262 0.0 1.6 0.00 0.00 0.00 1 1012.4
20260502110034 9 262 0.0 0.0 0.00 0.00 0.00 1 1012.2
20260502104530 8 259 0.0 1.6 0.00 0.00 0.00 1 1012.3
20260502103025 8 285 0.0 0.0 0.00 0.00 0.00 1 1011.9
20260502101520 8 285 0.0 0.0 0.00 0.00 0.00 1 1011.8
20260502091503 9 44 0.0 0.0 0.00 0.00 0.00 1 1011.4
20260502071534 10 271 0.0 0.0 0.00 0.00 0.00 23 1011.5
20260502070034 10 271 0.0 0.0 0.00 0.00 0.00 29 1011.5
20260502064541 11 271 0.0 0.0 0.00 0.00 0.00 36 1011.5
20260502063026 11 271 0.0 1.6 0.00 0.00 0.00 44 1011.6
20260502061527 11 261 0.0 1.6 0.00 0.00 0.00 45 1011.9
20260502060035 11 256 0.0 3.2 0.00 0.00 0.00 45 1012.0
20260502054526 11 265 0.0 0.0 0.00 0.00 0.00 43 1012.1
20260502053021 11 265 0.0 0.0 0.00 0.00 0.00 46 1011.8
20260502051518 11 266 0.0 0.0 0.00 0.00 0.00 48 1011.9
20260502050021 11 265 0.0 1.6 0.00 0.00 0.00 49 1011.9
20260502044516 11 258 0.0 0.0 0.00 0.00 0.00 49 1011.8
20260502043015 11 258 0.0 1.6 0.00 0.00 0.00 49 1011.8
20260502041514 11 264 0.0 0.0 0.00 0.00 0.00 46 1012.0
20260502040015 11 264 0.0 1.6 0.00 0.00 0.00 46 1011.9
20260502034506 12 264 0.0 0.0 0.00 0.00 0.00 49 1011.8
20260502033002 12 264 0.0 0.0 0.00 0.00 0.00 50 1011.8
20260502031558 12 264 0.0 0.0 0.00 0.00 0.00 50 1011.8
20260502030101 12 264 0.0 0.0 0.00 0.00 0.00 51 1011.8
20260502024554 12 264 0.0 0.0 0.00 0.00 0.00 51 1011.9
20260502023055 12 264 0.0 1.6 0.00 0.00 0.00 51 1012.1
20260502021545 12 265 0.0 1.6 0.00 0.00 0.00 51 1012.0
20260502020041 12 265 0.0 0.0 0.00 0.00 0.00 51 1011.9
20260502014537 12 265 0.0 1.6 0.00 0.00 0.00 51 1011.7
20260502013032 12 266 0.0 0.0 0.00 0.00 0.00 52 1011.7
20260502011527 12 265 0.0 0.0 0.00 0.00 0.00 53 1011.5
20260502010029 13 265 0.0 0.0 0.00 0.00 0.00 52 1011.3
20260502004527 13 266 0.0 0.0 0.00 0.00 0.00 52 1011.2
20260502003015 13 265 0.0 0.0 0.00 0.00 0.00 51 1011.1
20260502001510 14 266 0.0 0.0 0.00 0.00 0.00 50 1011.0
20260502000006 15 266 0.0 1.6 0.00 0.00 0.00 47 1011.0
20260501234502 15 265 0.0 1.6 0.00 0.00 0.00 46 1010.7
20260501233103 15 274 0.0 1.6 0.00 0.00 0.00 45 1010.7
20260501231557 15 215 0.0 14.5 0.00 0.00 0.00 45 1010.5
20260501230049 16 133 0.0 4.8 0.00 0.00 0.00 44 1010.5
20260501224544 16 222 0.0 9.7 0.00 0.00 0.00 42 1010.4
20260501223042 16 268 0.0 11.3 0.00 0.00 0.00 43 1010.3
20260501221535 16 247 0.0 8.0 0.00 0.00 0.00 43 1010.4
20260501220038 16 117 1.6 11.3 0.00 0.00 0.00 43 1010.4
20260501214529 16 229 3.2 9.7 0.00 0.00 0.00 42 1010.4
20260501213028 16 124 1.6 12.9 0.00 0.00 0.00 44 1010.4